Погода Ермаковское

Погода Ермаковское : погода сейчас, прогноз погоды и архив. Всё, что Вы хотите узнать о погоде Ермаковское!

Хотите узнать прогноз погоды Ермаковское? Тогда Вам сюда: Погода Ермаковское

Поиск расширенной информации на нашем сайте:

Другие новости

Новости СМИ2

Главная страница сайта

Новости сайта

03.07.2017

Напоминаем, что на нашем специализированном сайте Метеоцентр.Азия вы можете получить высокодетализированные автоматические прогнозы погоды по пунктам России, СНГ и мира в авиационном формате (включающие направление и скорость ветра, видимость, явления погоды, количество и форму облачности, нижнюю и верхнюю границу облачности).


Погода Ермаковское - сегодня

Время (UTC), дата Ветер
(°,м/с) 
Видим.   Явления Облачность Т
(°С)
Тd
(°С)
f(%) Тe
(°С)
Pmin
(гПа)
dP
(гПа)
Po
(мм)
O2
(г/м3)
Тmin Tmax R s Состояние
почвы
21 21.04.18 тихо ()   н/о    ясно 
-0.5 -3.3 81 -1  1019.4  -0.5  737  298           
00 22.04.18 тихо ()   10 км    4/0 средняя 
[Ac lent]
-0.3 -3 82 -0  1019.4  737  297  -2.5         
03 22.04.18 тихо ()   20000 м    8/0 верхняя 
[Ci]
+12.2 -1.6 38 +12  1017.6  737  284           
06 22.04.18 070 (В) 20000 м    6/0 верхняя 
[Ci]
+20.5 -1.9 22 +21  1014.4  -2.2  735  276           
09 22.04.18 250 (З) 20000 м    9/4 1000 м средняя, верхняя 
[Sc|Ac trans|Ci]
+22.6 -4.2 16 +23  1011.4  -2.6  733  273           
12 22.04.18 310 (СЗ) 20000 м    10/10 1000 м 
[Sc diur, vesp]
+19.3 -3.7 21 +21  1011.8  733  276    +23.2       
15 22.04.18 тихо ()   н/о    6/6 1000 м 
[Sc diur, vesp]
+10.2 +0.7 52 +10  1015.2  2.2  735  285           
18 22.04.18 тихо ()   н/о    8/4 1000 м средняя 
[Sc|Ac trans]
+4.8 +0.1 72 +5  1017.2  1.2  736  291           
21 22.04.18 тихо ()   н/о    6/3 1000 м средняя 
[Sc|Ac trans]
+2.8 -0.5 79 +3  1017.8  0.4  736  294           
00 23.04.18 190 (Ю) 20000 м    10/0 средняя, верхняя 
[Ac trans|Ci fib]
+4.1 -0.8 70 +5  1018.8  1.1  737  293  +2.1         
03 23.04.18 тихо ()   20000 м    8/3 1000 м средняя, верхняя 
[Sc|Ac cast|Cc]
+13 -0.7 39 +13  1018.2  0.6  737  284           
06 23.04.18 220 (ЮЗ) 20000 м    6/0 средняя, верхняя 
[Ac lent|Cc]
+21.8 -2.8 19 +22  1014.9  -2.2  736  275           
09 23.04.18 040 (СВ) 20000 м    8/4 600 м кучево-дожд., верхняя 
[Cb cap|Ci]
+24.6 -3.4 15 +25  1011.7  -2.8  733  271           
12 23.04.18 050 (СВ) 20000 м    6/3 1000 м верхняя 
[Sc diur, vesp|Ci fib]
+21.6 -1.6 21 +22  1010.6  -1.4  732  274    +25       
15 23.04.18 250 (З) н/о    5/0 верхняя 
[Ci fib]
+11.5 +1.3 49 +13  1011.4  -0.5  732  283           
18 23.04.18 тихо ()   н/о    5/0 верхняя 
[Ci fib]
+5.6 +0.7 71 +6  1010.5  -1.5  731  288           
21 23.04.18 070 (В) н/о    8/5 1000 м верхняя 
[Sc|Ci fib]
+4.5 +1.5 81 +5  1011  0.4  731  290           
00 24.04.18 040 (СВ) 20000 м    10/10 1000 м 
[Sc]
+6.1 +1.6 73 +7  1013.8  2.9  733  289  +4.1         
03 24.04.18 260 (З) 3{11}  20000 м    9/9 1000 м 
[Sc]
+15 +4.8 50 +15  1015  2.2  735  280           
09 24.04.18 290 (З) 5{13}  20000 м    3/3 1000 м 
[Cu Sc]
+20.8 +1.3 27 +21  1013.9  0.1  735  275           
12 24.04.18 310 (СЗ) 2{12}  20000 м    4/3 1000 м средняя 
[Sc|Ac lent]
+19.4 -1.7 24 +20  1014.5  735  277    +21.5       
15 24.04.18 тихо ()   н/о    ясно 
+9.8 +1.1 55 +10  1015.6  735  286           
18 24.04.18 050 (СВ) н/о    4/0 верхняя 
[Ci fib]
+4 +1.7 85 +5  1014.7  -1.6  734  291           
21 24.04.18 тихо ()   н/о    4/4 1000 м 
[Sc]
+1.8 +0.5 91 +2  1013.1  -2  732  293           
00 25.04.18 030 (СВ) 10 км    9/0 верхняя 
[Ci]
+4.2 +1.7 84 +5  1012.2  -0.5  732  290  +1.5         
Время (UTC), дата Ветер
(°,м/с) 
Видим.   Явления Облачность Т
(°С)
Тd
(°С)
f(%) Тe
(°С)
Pmin
(гПа)
dP
(гПа)
Po
(мм)
O2
(г/м3)
Тmin Tmax R s Состояние
почвы

Для получения пояснительной информации подведите курсор к названию столбца.

ПОГОДА Ермаковское - архив

Всё, что Вы хотите узнать о погоде Ермаковское - удобно и подробно!

Выберите нужную дату (начиная с 1 января 2015* года) и нажмите кнопку "Найти".
Будут отображены архивные сводки погоды по пункту Ермаковское, начиная с указанной даты.


Отображать данные в формате CSV (для использования в таблицах Excel)


Внимание! Наш архив погоды предназначен исключительно для личного некоммерческого использования в познавательных целях. Если Вам необходимы официальные справки о состоянии погоды (для производственных, юридических, коммерческих и т.п. целей), обращайтесь в органы Росгидромета.

*Примечание: данная дата относится к архиву по метеостанциям СССР (Россия, СНГ, Балтия).
Архив по метеостанциям Зарубежной Европы и Азии (кроме Китая) хранится 10 дней, по другим регионам земного шара (Китай, Африка, Америка, Австралия, Океания) - 1 день.

Ермаковское - район местоположения метеостанции


Название, широта, долгота, высота метеостанции:
Ермаковское 53.3°ш. 92.4°д. 298 м над ур. моря [Российская Федерация]

Дополнительная информация

В oтличие oт бoльшинства пoгoдных сайтoв мы публикуем пoдрoбную метеoинфoрмацию в детальнoм прoфессиoнальнoм фoрмате.

Характеристики температуры и влажнoсти вoздуха измеряются на высoте 2 м в тени вдали oт зданий и деревьев.
Скoрoсть ветра измеряется на высoте 10 м (на урoвне рoста челoвека скoрoсть ветра ниже в 1.5-2 раза). Если метеoстанция нахoдится в гoрoде или в лесу, тo скoрoсть ветра занижена на 2-4 м/с пo сравнению с oткрытым местoм. Скoрoсть ветра над акватoриями крупных рек и oзёр, а также на вершинах хoлмoв на 2-5 м/с выше, чем в oбычных услoвиях.
Атмoсфернoе давление в разных тoчках местнoсти мoжет значительнo oтличаться oт давления на метеoстанции, в зависимoсти oт услoвий рельефа (при пoдъёме на 10 м давление пoнижается примернo на 1 мм рт.ст.).